Location: Dannhausen
(51.8650°N, 10.1026°E)
Time: 18:52:11
(UTC+00:00)

Cosmos 2219 Rocket - Pass Details

Date: 09 April 2020
Orbit: 829 x 845 km, 71.0° (Epoch: 24 May)

Event Time Altitude Azimuth Distance (km) Brightness Sun altitude
Rises 22:25:25 0° 330° (NNW) 3,392 6.5 -28.9°
Reaches altitude 10° 22:28:14 10° 342° (NNW) 2,453 5.5 -29.1°
Maximum altitude 22:33:02 28° 41° (NE) 1,514 3.8 -29.2°
Enters shadow 22:34:52 24° 72° (ENE) 1,680 3.7 -29.3°
